Location: Berbisdorf
(50.7638°N, 12.9442°E)
Time: 01:40:06
(UTC+00:00)

STARLINK-1317 - Pass Details

Date: 10 October 2020
Orbit: 549 x 550 km, 53.0° (Epoch: 20 October)

Event Time Altitude Azimuth Distance (km) Brightness Sun altitude
Exits shadow 01:56:36 17° 93° (E) 1,440 6.2 -32.2°
Drops below altitude 10° 01:57:48 10° 82° (E) 1,825 7.0 -32.0°
Sets 02:00:16 0° 70° (ENE) 2,722 8.2 -31.7°
